User: anonymous   Login
Location: Ballingbuur
(53.0000°N, 5.7667°E)
Time: 20:26:58
(UTC+00:00)
Language:

USA 290 - Orbit

View from above orbital plane
View from above orbital plane
View from above satellite
View from above satellite

Ground track
Ground track

The orbit data is extracted from the following two-line orbital elements,

1 43941U 19004A   21027.73458942 0.00002100  00000-0  32546-4 0    09
2 43941  73.5834 245.4060 0012485 117.2296 242.7703 15.53803261    01
Epoch (UTC): 27 January 2021 17:37:48
Eccentricity: 0.0012485
inclination: 73.5834°
perigee height: 397 km
apogee height: 414 km
right ascension of ascending node: 245.4060°
argument of perigee: 117.2296°
revolutions per day: 15.53803261
mean anomaly at epoch: 242.7703°
orbit number at epoch: 0

The dashed part of the orbit path shows where the satellite is in the earth's shadow,  

DLR